DW3150 Weather Reports


Display with metric or nautical units.
time (UTC)temp
F
wind
direction
speed
MPH
gust
MPH
rain 1hr
in
rain 24hr
in
rain mn
in
humidity
%
barometer
mb
20181210070005 43 195 0.0 0.0 0.00 0.01 0.01 90 1023.6
20181210064506 43 195 0.0 0.0 0.00 0.01 0.01 91 1023.5
20181210062505 44 195 0.0 0.0 0.00 0.01 0.01 90 1023.8
20181210062006 44 195 0.0 0.0 0.00 0.01 0.01 90 1023.8
20181210061506 44 195 0.0 0.0 0.00 0.01 0.01 90 1023.8
20181210061005 44 195 0.0 0.0 0.00 0.01 0.01 90 1023.9
20181210055005 44 195 0.0 0.0 0.00 0.01 0.01 89 1023.9
20181210054505 44 195 0.0 0.0 0.00 0.01 0.01 89 1023.8
20181210053005 45 195 0.0 0.0 0.00 0.01 0.01 89 1023.9
20181210052005 45 195 0.0 0.0 0.00 0.01 0.01 89 1024.0
20181210051505 45 195 0.0 0.0 0.00 0.01 0.01 89 1024.3
20181210050504 46 195 0.0 0.0 0.00 0.01 0.01 89 1024.0
20181210050005 46 195 0.0 0.0 0.00 0.01 0.01 89 1024.1
20181210045504 46 195 0.0 0.0 0.00 0.01 0.01 89 1024.3
20181210045005 46 195 0.0 0.0 0.00 0.01 0.01 89 1024.0
20181210044005 47 195 0.0 0.0 0.00 0.01 0.01 89 1024.0
20181210043505 47 195 0.0 0.0 0.00 0.01 0.01 89 1024.1
20181210043005 47 195 0.0 0.0 0.00 0.01 0.01 89 1023.9
20181210042506 47 195 0.0 0.0 0.00 0.01 0.01 89 1024.0
20181210042005 48 195 0.0 0.0 0.00 0.01 0.01 89 1024.0
20181210041006 48 195 0.0 0.0 0.00 0.01 0.01 89 1024.0
20181210040005 48 195 0.0 0.0 0.00 0.01 0.01 89 1024.3
20181210035504 48 195 0.0 0.0 0.00 0.01 0.01 89 1024.1
20181210035005 49 195 0.0 0.0 0.00 0.01 0.01 89 1024.4
20181210034505 49 195 0.0 0.0 0.00 0.01 0.01 89 1024.1
20181210033005 49 195 0.0 0.0 0.00 0.01 0.01 88 1024.5
20181210032505 49 195 0.0 0.0 0.00 0.01 0.01 88 1024.4
20181210032005 49 195 0.0 0.0 0.00 0.01 0.01 88 1024.2
20181210031005 50 195 0.0 0.0 0.00 0.01 0.01 88 1024.2
20181210030505 50 195 0.0 1.0 0.00 0.01 0.01 87 1024.5
20181210030006 50 221 0.0 0.0 0.00 0.01 0.01 87 1024.6
20181210024005 51 221 0.0 0.0 0.00 0.01 0.01 87 1024.5
20181210023505 51 221 0.0 0.0 0.00 0.01 0.01 87 1024.4
20181210022504 51 221 0.0 0.0 0.00 0.01 0.01 87 1024.5
20181210021505 52 221 0.0 0.0 0.00 0.01 0.01 86 1024.1
20181210021005 52 221 0.0 0.0 0.00 0.01 0.01 87 1024.1
20181210020004 52 221 0.0 0.0 0.00 0.01 0.01 86 1024.3
20181210013505 54 221 0.0 0.0 0.00 0.01 0.01 85 1023.6
20181210013005 54 221 0.0 0.0 0.00 0.01 0.01 85 1023.6
20181210012505 54 221 0.0 0.0 0.00 0.01 0.01 85 1023.5
20181210012005 54 221 0.0 0.0 0.00 0.01 0.01 85 1023.7
20181210011005 55 221 0.0 0.0 0.00 0.01 0.01 84 1023.8
20181210010504 55 221 0.0 0.0 0.00 0.01 0.01 84 1023.8
20181210005505 56 221 0.0 0.0 0.00 0.01 0.01 84 1023.8
20181210005005 56 221 0.0 2.0 0.00 0.01 0.01 84 1023.6
20181210004505 56 221 2.0 3.0 0.00 0.01 0.01 83 1023.4
20181210004007 57 221 0.0 0.0 0.00 0.01 0.01 83 1023.8
20181210002504 58 221 0.0 1.0 0.00 0.01 0.01 82 1024.0
20181210002005 58 221 0.0 0.0 0.00 0.01 0.01 81 1023.9
20181210001005 59 221 0.0 0.0 0.00 0.01 0.01 80 1023.8
20181210000005 59 221 0.0 0.0 0.00 0.01 0.01 79 1024.0
20181209235504 59 221 0.0 1.0 0.00 0.01 0.01 79 1023.7
20181209235006 60 221 1.0 2.0 0.00 0.01 0.01 78 1023.7
20181209234005 60 221 0.0 0.0 0.00 0.01 0.01 78 1023.9
20181209233005 60 221 0.0 0.0 0.00 0.01 0.01 77 1024.2
20181209232505 60 221 0.0 0.0 0.00 0.01 0.01 76 1023.8
20181209232005 60 221 0.0 2.0 0.00 0.01 0.01 77 1023.5
20181209231005 61 221 0.0 1.0 0.00 0.01 0.01 77 1023.7
20181209225505 61 221 0.0 2.0 0.00 0.01 0.01 75 1024.0
20181209225006 61 221 0.0 2.0 0.00 0.01 0.01 74 1024.2
20181209224506 61 221 0.0 1.0 0.00 0.01 0.01 73 1024.6
20181209223505 61 221 1.0 3.0 0.00 0.01 0.01 72 1024.6
20181209223005 61 223 0.0 1.0 0.00 0.01 0.01 73 1024.3
20181209222005 61 223 1.0 2.0 0.00 0.01 0.01 73 1024.2
20181209221505 61 226 2.0 3.0 0.00 0.01 0.01 74 1024.4
20181209221005 61 238 0.0 3.0 0.00 0.01 0.01 75 1024.0
20181209220505 61 240 1.0 3.0 0.00 0.01 0.01 75 1024.2
20181209220004 61 243 0.0 1.0 0.00 0.01 0.01 75 1024.4
20181209215505 61 202 1.0 3.0 0.00 0.01 0.01 75 1024.4
20181209215005 61 151 1.0 3.0 0.00 0.01 0.01 76 1024.0
20181209214505 61 151 0.0 0.0 0.00 0.01 0.01 77 1024.4
20181209214004 61 151 0.0 1.0 0.00 0.01 0.01 77 1024.1
20181209213005 61 151 0.0 0.0 0.00 0.01 0.01 75 1024.2
20181209212504 61 151 0.0 0.0 0.00 0.01 0.01 75 1024.3
20181209212005 61 151 0.0 0.0 0.00 0.01 0.01 75 1024.6
20181209210504 61 151 0.0 1.0 0.00 0.01 0.01 73 1024.3
20181209210005 61 151 0.0 0.0 0.00 0.01 0.01 75 1024.9
20181209205005 60 151 0.0 2.0 0.00 0.01 0.01 77 1024.9
20181209204504 59 151 0.0 2.0 0.00 0.01 0.01 77 1024.7
20181209204005 59 151 0.0 0.0 0.00 0.01 0.01 77 1024.6
20181209203505 59 151 0.0 2.0 0.00 0.01 0.01 79 1024.6
20181209203005 58 151 0.0 0.0 0.00 0.01 0.01 82 1024.8
20181209202505 58 151 0.0 0.0 0.00 0.01 0.01 85 1025.0
20181209201505 57 151 0.0 0.0 0.00 0.01 0.01 88 1025.1
20181209201005 56 151 0.0 1.0 0.00 0.01 0.01 89 1025.0
20181209200505 55 151 0.0 1.0 0.00 0.01 0.01 90 1025.1
20181209200006 55 151 2.0 6.0 0.00 0.01 0.01 91 1025.2
20181209194505 53 152 0.0 0.0 0.00 0.01 0.01 92 1025.2
20181209194005 52 152 0.0 0.0 0.00 0.01 0.01 92 1025.3
20181209193505 52 152 0.0 1.0 0.00 0.01 0.01 92 1025.3
20181209192505 51 152 0.0 1.0 0.00 0.01 0.01 93 1025.9
20181209192005 51 152 0.0 0.0 0.00 0.01 0.01 93 1026.0
20181209191505 51 152 0.0 1.0 0.00 0.01 0.01 93 1025.9
20181209191005 51 152 0.0 0.0 0.00 0.01 0.01 93 1026.0
20181209190505 50 152 0.0 0.0 0.00 0.01 0.01 94 1026.0
20181209190005 50 152 0.0 0.0 0.00 0.01 0.01 94 1026.2
20181209185504 49 154 0.0 0.0 0.00 0.01 0.01 94 1026.3
20181209185005 48 161 0.0 0.0 0.00 0.01 0.01 94 1026.4
20181209184505 48 161 0.0 1.0 0.00 0.01 0.01 94 1026.4
20181209184005 47 161 0.0 0.0 0.00 0.01 0.01 94 1026.7
20181209183505 47 161 0.0 0.0 0.00 0.01 0.01 94 1026.9
20181209183005 47 161 0.0 0.0 0.00 0.01 0.01 94 1026.9
20181209182504 47 161 0.0 0.0 0.00 0.01 0.01 94 1026.8
20181209181504 46 161 0.0 0.0 0.00 0.01 0.01 94 1026.8
20181209181005 46 161 0.0 0.0 0.00 0.01 0.01 94 1026.7
20181209180005 45 161 0.0 0.0 0.00 0.01 0.01 94 1026.5
20181209175504 45 161 0.0 0.0 0.00 0.01 0.01 94 1026.5
20181209175005 45 161 0.0 0.0 0.00 0.01 0.01 94 1026.7
20181209174505 44 161 0.0 0.0 0.00 0.01 0.01 94 1026.7
20181209174005 44 161 0.0 0.0 0.00 0.01 0.01 95 1026.7
20181209173505 43 161 0.0 0.0 0.00 0.01 0.01 94 1026.7
20181209173005 43 161 0.0 0.0 0.00 0.01 0.01 94 1026.6
20181209172504 42 161 0.0 0.0 0.00 0.01 0.01 94 1026.7
20181209171005 41 161 0.0 0.0 0.00 0.01 0.01 94 1026.5
20181209170505 41 161 0.0 0.0 0.00 0.01 0.01 94 1026.4
20181209165505 40 161 0.0 0.0 0.00 0.01 0.01 94 1026.1
20181209164506 39 161 0.0 0.0 0.00 0.01 0.01 94 1026.0
20181209164005 39 161 0.0 0.0 0.00 0.01 0.01 94 1026.0
20181209163005 38 161 0.0 0.0 0.00 0.01 0.01 94 1025.9
20181209162504 38 161 0.0 0.0 0.00 0.01 0.01 93 1025.6
20181209162005 38 161 0.0 0.0 0.00 0.01 0.01 93 1025.5
20181209160505 38 161 0.0 0.0 0.00 0.01 0.01 93 1025.9
20181209155504 38 161 0.0 0.0 0.00 0.01 0.01 93 1026.0
20181209154505 37 161 0.0 0.0 0.00 0.01 0.01 93 1025.9
20181209154005 37 161 0.0 0.0 0.00 0.01 0.01 93 1025.9
20181209153504 37 161 0.0 0.0 0.00 0.01 0.01 93 1025.9
20181209152504 37 161 0.0 2.0 0.00 0.01 0.01 93 1025.5
20181209152006 37 161 1.0 2.0 0.00 0.01 0.01 93 1025.6
20181209151505 37 161 0.0 0.0 0.00 0.01 0.01 93 1025.6
20181209151006 37 161 0.0 0.0 0.00 0.01 0.01 93 1025.6
20181209150505 37 161 0.0 0.0 0.00 0.01 0.01 93 1025.9
20181209150005 37 161 0.0 0.0 0.00 0.01 0.01 93 1025.9
20181209145505 38 161 0.0 0.0 0.00 0.01 0.01 93 1025.9
20181209144505 38 161 0.0 0.0 0.00 0.01 0.01 93 1025.9
20181209144005 38 161 0.0 0.0 0.00 0.01 0.01 93 1025.8
20181209142505 38 161 0.0 0.0 0.00 0.01 0.01 92 1025.8
20181209142005 38 161 0.0 0.0 0.00 0.01 0.01 92 1026.0
20181209141005 38 161 0.0 0.0 0.00 0.01 0.01 92 1026.1
20181209140504 38 161 0.0 0.0 0.00 0.01 0.01 92 1025.9
20181209135505 38 161 0.0 0.0 0.00 0.01 0.01 92 1025.9
20181209135005 38 161 0.0 0.0 0.00 0.01 0.01 92 1025.9
20181209134505 38 161 0.0 0.0 0.00 0.01 0.01 92 1025.7
20181209134005 38 161 0.0 0.0 0.00 0.01 0.01 92 1026.3
20181209133505 38 161 0.0 0.0 0.00 0.01 0.01 92 1026.0
20181209133005 38 161 0.0 0.0 0.00 0.01 0.01 92 1026.0
20181209131505 38 161 0.0 0.0 0.00 0.01 0.01 92 1026.2
20181209131005 38 161 0.0 0.0 0.00 0.01 0.01 92 1026.4
20181209130505 38 161 0.0 0.0 0.00 0.01 0.01 92 1026.3
20181209125004 38 161 0.0 0.0 0.00 0.01 0.01 92 1026.3
20181209124005 38 161 0.0 0.0 0.00 0.01 0.01 92 1026.1
20181209123505 38 161 0.0 0.0 0.00 0.01 0.01 92 1026.0
20181209123005 38 161 0.0 0.0 0.00 0.01 0.01 92 1025.9
20181209122505 38 161 0.0 0.0 0.00 0.01 0.01 92 1025.8
20181209122006 38 161 0.0 0.0 0.00 0.01 0.01 92 1026.1
20181209121504 38 161 0.0 0.0 0.00 0.01 0.01 92 1026.0
20181209121005 38 161 0.0 0.0 0.00 0.01 0.01 92 1026.0
20181209120504 38 161 0.0 0.0 0.00 0.01 0.01 92 1025.9
20181209120005 38 161 0.0 0.0 0.00 0.01 0.01 92 1026.2
20181209115005 38 161 0.0 0.0 0.00 0.01 0.01 92 1026.1
20181209114505 38 161 0.0 0.0 0.00 0.01 0.01 92 1026.2
20181209114006 38 161 0.0 0.0 0.01 0.01 0.01 92 1026.3
20181209112505 38 161 0.0 0.0 0.01 0.01 0.01 92 1026.3
20181209111505 38 161 0.0 0.0 0.01 0.01 0.01 91 1026.3
20181209111005 39 161 0.0 0.0 0.01 0.01 0.01 92 1026.3
20181209105505 39 161 0.0 0.0 0.01 0.01 0.01 91 1026.2
20181209105004 39 161 0.0 0.0 0.01 0.01 0.01 91 1026.6
20181209104004 39 161 0.0 0.0 0.00 0.00 0.00 91 1026.4
20181209103505 39 161 0.0 0.0 0.00 0.00 0.00 91 1026.6
20181209102505 39 161 0.0 0.0 0.00 0.00 0.00 91 1026.5
20181209101505 39 161 0.0 0.0 0.00 0.00 0.00 91 1026.2
20181209101005 39 161 0.0 0.0 0.00 0.00 0.00 91 1026.4
20181209100505 39 161 0.0 0.0 0.00 0.00 0.00 91 1026.1
20181209100005 39 161 0.0 0.0 0.00 0.00 0.00 91 1026.2
20181209095505 39 161 0.0 0.0 0.00 0.00 0.00 91 1026.2
20181209095004 39 161 0.0 0.0 0.00 0.00 0.00 91 1026.3
20181209094504 39 161 0.0 0.0 0.00 0.00 0.00 91 1026.2
20181209093505 39 161 0.0 0.0 0.00 0.00 0.00 91 1026.3
20181209093005 39 161 0.0 0.0 0.00 0.00 0.00 91 1026.2
20181209092505 39 161 0.0 0.0 0.00 0.00 0.00 91 1026.1
20181209091505 39 161 0.0 0.0 0.00 0.00 0.00 91 1026.3
20181209091005 39 161 0.0 0.0 0.00 0.00 0.00 91 1026.4
20181209090504 39 161 0.0 0.0 0.00 0.00 0.00 91 1026.4
20181209090004 39 161 0.0 0.0 0.00 0.00 0.00 91 1026.2
20181209084505 39 161 0.0 0.0 0.00 0.00 0.00 91 1026.1
20181209083504 39 161 0.0 0.0 0.00 0.00 0.00 90 1026.4
20181209083005 39 161 0.0 0.0 0.00 0.00 0.00 90 1026.4
20181209082504 39 161 0.0 0.0 0.00 0.00 0.00 90 1026.5
20181209082005 39 161 0.0 0.0 0.00 0.00 0.00 90 1026.5
20181209081505 39 161 0.0 0.0 0.00 0.00 0.00 90 1026.5
20181209081004 39 161 0.0 0.0 0.00 0.00 0.00 90 1026.5
20181209080504 39 161 0.0 0.0 0.00 0.00 0.00 90 1026.2
20181209080005 39 161 0.0 0.0 0.00 0.00 0.00 90 1026.1
20181209075505 39 161 0.0 0.0 0.00 0.01 0.00 90 1026.1
20181209074505 40 161 0.0 0.0 0.00 0.01 0.00 90 1026.4
20181209074005 40 161 0.0 0.0 0.00 0.01 0.00 90 1026.4
20181209073505 40 161 0.0 0.0 0.00 0.01 0.00 90 1026.4
20181209073004 40 161 0.0 0.0 0.00 0.01 0.00 90 1026.5
20181209072505 40 161 0.0 0.0 0.00 0.01 0.00 90 1026.5
20181209071505 40 161 0.0 0.0 0.00 0.01 0.00 90 1026.6